Regional Weather Roundup
Issued by NWS

Home | Current Version | Previous Version | Graphics & Text | Print | Product List | Glossary On
Versions: 1 2 3 4 5 6 7 8 9 10 11 12 13 14 15 16 17 18 19 20 21 22 23 24 25 26 27 28 29 30 31 32 33 34 35 36 37 38 39 40 41 42 43 44 45 46 47 48 49 50
001
ASUS45 KTFX 090910
RWRMT
MONTANA REGIONAL WEATHER ROUNDUP
NATIONAL WEATHER SERVICE GREAT FALLS MT
200 AM MST TUE FEB 09 2016

NOTE: "FAIR" INDICATES FEW OR NO CLOUDS BELOW 12000 FEET WITH NO
SIGNIFICANT WEATHER AND/OR OBSTRUCTIONS TO VISIBILITY.

MTZ001>007-043-091000-
WEST OF THE DIVIDE

CITY           SKY/WX    TMP DP  RH WIND       PRES   REMARKS
KALISPELL      CLEAR     23  21  92 CALM      30.53S
MISSOULA       CLEAR     26  22  84 CALM      30.55F
BUTTE          FOG       19  17  92 CALM      30.50S VSB 1/4
MULLAN PASS    CLEAR     38  30  73 S3        30.49F
ANACONDA         N/A     30  27  86 CALM      30.50R
DEER LODGE       N/A     28  28 100 W3        30.51S
HAMILTON         N/A     28  27  93 CALM      30.52F
LIBBY            N/A     23  21  93 CALM      30.54F
PLAINS           N/A     27  22  81 CALM      30.51S
$$

MTZ008-052>055-091000-
SOUTHWEST MONTANA

CITY           SKY/WX    TMP DP  RH WIND       PRES   REMARKS
BOZEMAN        CLOUDY    21  19  92 S6        30.46F WCI  13
DILLON         CLOUDY    29  24  82 SW9       30.47F WCI  20
ENNIS          CLEAR     27  23  86 CALM      30.53F
TWIN BRIDGES     N/A     24  18  78 E7        30.40F WCI  16
$$

MTZ009-010-012-014-046-048-049-054-091000-
EAST SLOPES AND CENTRAL MONTANA

CITY           SKY/WX    TMP DP  RH WIND       PRES   REMARKS
CUT BANK       CLEAR     40  29  64 W17       30.29R
GREAT FALLS    CLOUDY    39  29  67 SW13      30.32F WCI  31
MALMSTROM AFB  CLOUDY    37  30  76 SW10      30.32F WCI  30
HELENA         CLOUDY    30  27  88 CALM      30.42F
CHOTEAU          N/A     50  25  37 W10G18    30.31S
CONRAD           N/A     42  29  60 S2        30.28S
$$

MTZ011-013-016-021-045-047-050-051-091000-
NORTH CENTRAL MONTANA

CITY           SKY/WX    TMP DP  RH WIND       PRES   REMARKS
HAVRE          MOCLDY    38  30  73 SW13      30.28R WCI  30
LEWISTOWN      CLEAR     36  25  64 W9        30.31S WCI  29
N BAR RANCH      N/A     45  27  49 NW14G20   30.28F
CHINOOK          N/A     25  23  93 CALM      30.28S
$$

MTZ017>020-022>027-061-062-091000-
NORTHEAST MONTANA

CITY           SKY/WX    TMP DP  RH WIND       PRES   REMARKS
GLASGOW        CLOUDY    27  21  78 N8        30.25R WCI  19
JORDAN           N/A     31  28  89 W9        30.25S WCI  23
SIDNEY         CLOUDY    28  19  69 S7        30.22F WCI  21
WOLF POINT     CLOUDY    28  22  78 W6        30.24S WCI  22
PLENTYWOOD       N/A     27  21  80 N3        30.20R
POPLAR           N/A     25  19  80 SW7       30.24S WCI  17
SCOBEY           N/A     27  15  60 CALM      30.17S
$$

MTZ028>42-056>058-091000-
SOUTHCENTRAL AND SOUTHEAST MONTANA

CITY           SKY/WX    TMP DP  RH WIND       PRES   REMARKS
BAKER          CLOUDY    21  13  71 CALM      30.21F
BILLINGS       CLEAR     36  26  67 W12       30.30F WCI  28
LIVINGSTON     CLOUDY    47  26  44 SW18      30.40S
MILES CITY     PTCLDY    29  25  85 W10       30.23F WCI  20
EKALAKA          N/A     28  17  63 W2        30.17R
FORSYTH          N/A     36  27  69 W8        30.26S WCI  29
LAUREL           N/A     33  17  52 W5        30.27F
ROUNDUP          N/A     38  27  65 SW3       30.17F
$$

REGIONAL REPORTS...DAKOTAS

CITY           SKY/WX    TMP DP  RH WIND       PRES   REMARKS
WILLISTON      CLOUDY    29  21  72 SE3       30.22F
MINOT          CLOUDY    25  14  63 SW6       30.23F WCI  18
DICKINSON      CLOUDY    25  17  72 SE5       30.19F
BEACH          CLOUDY    30  18  59 S6        30.24S WCI  24
CROSBY         MOCLDY    25  23  93 S8        30.23F WCI  16
TIOGA          CLOUDY    23  23 100 S7        30.26F WCI  15
WATFORD CITY   CLOUDY    27  21  80 S5        30.22F
BISMARCK       CLOUDY    25   9  50 N8        30.28F WCI  16
GRAND FORKS    CLOUDY     7   1  76 NW10      30.26F WCI  -8
FARGO          CLEAR      5  -1  76 N12       30.25S WCI -11
BUFFALO SD       N/A     23  14  68 SW5       30.15S
RAPID CITY     PTCLDY    25  17  72 N8        30.22S WCI  16
$$

REGIONAL REPORTS...WYOMING/IDAHO/WASHINGTON

CITY           SKY/WX    TMP DP  RH WIND       PRES   REMARKS
GILLETTE       CLEAR     33  26  75 W12       30.26S WCI  24
SHERIDAN       CLEAR     38  28  67 W9        30.29S WCI  31
BUFFALO WY     CLEAR     42  27  55 N8        30.28F
CODY           CLOUDY    28  19  69 CALM      30.33S
YELLOWSTONE LA   N/A     11   7  84 CALM      30.58R
IDAHO FALLS    FOG       18  15  88 NW3       30.62F VSB<1/4
SALMON         CLOUDY    12  12 100 CALM      30.66F
BOISE          CLOUDY    32  28  86 SE3       30.62F
SPOKANE        PTCLDY    32  28  85 NE6       30.49F WCI  26
$$

REGIONAL REPORTS...ALBERTA

CITY           SKY/WX    TMP DP  RH WIND       PRES   REMARKS
EDMONTON       CLOUDY    37  27  65 W8        30.15F WCI  31
CALGARY        PTCLDY    43  21  42 CALM      30.23F
LETHBRIDGE     CLEAR     46  30  53 W22G31    30.25F
MEDICINE HAT   MOCLDY    28  28 100 SW6       30.24F WCI  22
WATERTON GATE    N/A     46  27  46 SW29G45     N/A
CARDSTON         N/A     50  23  34 W16G23      N/A
MILK RIVER       N/A     37  28  70 W14         N/A  WCI  29
ONEFOUR          N/A     36  28  75 NW17        N/A  WCI  25
$$

REGIONAL REPORTS...SASKATCHEWAN

CITY           SKY/WX    TMP DP  RH WIND       PRES   REMARKS
SWIFT CURRENT  CLOUDY    32  27  80 W9        30.20S WCI  24
REGINA         MOCLDY    23  21  93 SE5       30.17F
SASKATOON      CLOUDY    21  18  86 NW3       30.22S
CYPRESS HILLS    N/A     36  21  55 N2          N/A
VAL MARIE        N/A     30  27  86 E2          N/A
ROCKGLEN         N/A     32  27  80 NW9         N/A  WCI  24
ASSINIBOIA       N/A     36  32  87 S5          N/A
$$




USA.gov is the U.S. government's official web portal to all federal, state and local government web resources and services.